This is the latest recevied weather packets stored in our database for station/object OE3APM-13. If no packets are shown the sender has not sent any weather packets the latest 10 day(s).
| Time | Temp. | Humidity | Pressure | Rain* | Wind** | Luminosity | Snow |
|---|---|---|---|---|---|---|---|
| 1777479230 | 11.67° C | 34% | 1023.4 hPa | 0 mm | - | 223 W/m² | - |
| 1777478930 | 11.67° C | 35% | 1023.4 hPa | 0 mm | - | 239 W/m² | - |
| 1777478629 | 12.22° C | 35% | 1023.4 hPa | 0 mm | - | 255 W/m² | - |
| 1777478330 | 12.22° C | 35% | 1023.2 hPa | 0 mm | - | 267 W/m² | - |
| 1777478030 | 12.22° C | 36% | 1023.2 hPa | 0 mm | - | 281 W/m² | - |
| 1777477730 | 12.78° C | 35% | 1023.2 hPa | 0 mm | - | 294 W/m² | - |
| 1777477429 | 12.78° C | 38% | 1023.1 hPa | 0 mm | - | 309 W/m² | - |
| 1777477132 | 12.78° C | 35% | 1023.1 hPa | 0 mm | - | 327 W/m² | - |
| 1777476829 | 12.78° C | 35% | 1023 hPa | 0 mm | - | 338 W/m² | - |
| 1777476521 | 13.33° C | 35% | 1022.9 hPa | 0 mm | - | 359 W/m² | - |
| 1777476210 | 13.33° C | 35% | 1022.9 hPa | 0 mm | - | 371 W/m² | - |
| 1777475910 | 13.33° C | 34% | 1022.9 hPa | 0 mm | - | 392 W/m² | - |
| 1777475611 | 13.33° C | 36% | 1022.8 hPa | 0 mm | - | 403 W/m² | - |
| 1777475310 | 13.89° C | 34% | 1022.8 hPa | 0 mm | - | 427 W/m² | - |
| 1777475011 | 13.89° C | 34% | 1022.7 hPa | 0 mm | - | 446 W/m² | - |
| 1777474711 | 13.89° C | 33% | 1022.7 hPa | 0 mm | - | 455 W/m² | - |
| 1777474410 | 13.89° C | 33% | 1022.7 hPa | 0 mm | - | 459 W/m² | - |
| 1777474110 | 13.89° C | 32% | 1022.7 hPa | 0 mm | - | 471 W/m² | - |
| 1777473810 | 13.89° C | 33% | 1022.7 hPa | 0 mm | - | 483 W/m² | - |
| 1777473510 | 13.89° C | 32% | 1022.7 hPa | 0 mm | - | 501 W/m² | - |
| 1777473209 | 13.89° C | 31% | 1022.7 hPa | 0 mm | - | 517 W/m² | - |
| 1777472910 | 14.44° C | 31% | 1022.6 hPa | 0 mm | - | 531 W/m² | - |
| 1777472610 | 14.44° C | 30% | 1022.6 hPa | 0 mm | - | 543 W/m² | - |
| 1777472307 | 14.44° C | 32% | 1022.6 hPa | 0 mm | - | 559 W/m² | - |
| 1777472001 | 14.44° C | 31% | 1022.6 hPa | 0 mm | - | 570 W/m² | - |
* Rain latest hour (hover to see other rain measurements)
** Current wind speed in m/s (hover to see current wind gust speed)